Location: Newark
(30.1000°N, 109.4667°E)
Time: 09:24:41
(UTC+00:00)

A-11 Canister half - Pass Details

Date: 25 February 2020
Orbit: 1516 x 1683 km, 47.2° (Epoch: 07 April)

Event Time Altitude Azimuth Distance (km) Brightness Sun altitude
Rises 12:57:51 0° 309° (NW) 4,831 12.4 -31.0°
Reaches altitude 10° 13:01:15 10° 316° (NW) 3,820 11.6 -31.7°
Maximum altitude 13:10:25 45° 27° (NNE) 2,027 9.4 -33.7°
Enters shadow 13:10:31 45° 28° (NNE) 2,026 9.4 -33.7°
